Weather History for Coolangatta, QU

Change the Weather History Date:

Friday, March 15, 2013

  Actual Average (YBBN) Record (YBBN)
Temperature  
Mean Temperature 74 °F -  
Max Temperature 82 °F 80 °F 87 °F (1998)
Min Temperature 66 °F 65 °F 62 °F (1997)
Cooling Degree Days 9    
Growing Degree Days 24 (Base 50)    
Moisture  
Dew Point 64 °F    
Average Humidity 69    
Maximum Humidity 88    
Minimum Humidity 43    
Precipitation  
Precipitation 0.00 in - - ()
Sea Level Pressure  
Sea Level Pressure 29.91 in    
Wind  
Wind Speed 9 mph ()    
Max Wind Speed 17 mph    
Max Gust Speed -    
Visibility 6.2 miles    
Events      
Averages and records for this station are not official NWS values.
T = Trace of Precipitation, MM = Missing Value Source: Averaged Metar Reports

Daily Weather History Graph

Daily Weather History Graph

Search for Another Location

Airport:

Trip Planner

Search our weather history database for the weather conditions in past years. The results will help you decide how hot, cold, wet, or windy it might be!

Date:

Astronomy

Mar. 15, 2013 Rise Set
Actual Time 5:46 AM EST 6:02 PM EST
Civil Twilight 5:22 AM EST 6:26 PM EST
Nautical Twilight 4:55 AM EST 6:53 PM EST
Astronomical Twilight 4:27 AM EST 7:21 PM EST
Moon 8:41 AM EST (3/15) 7:59 PM EST (3/15)
Length of Visible Light 13h 03m
Length of Day
12h 16m
Waxing Crescent, 11% of the Moon is Illuminated
Mar 15
Waxing Crescent
Mar 20
First Quarter
Mar 27
Full
Apr 3
Last Quarter
Apr 10
New

Hourly Weather History & Observations

Time (EST) Temp. Heat Index Dew Point Humidity Pressure Visibility Wind Dir Wind Speed Gust Speed Precip Events Conditions
12:00 AM 71 °F - 62 °F 67% 29.88 in - SSW 9.2 mph - -  
12:00 AM 71.6 °F - 62.6 °F 73% 29.86 in 6.2 mi SSW 9.2 mph - N/A   Unknown
12:30 AM 71.6 °F - 62.6 °F 73% 29.86 in 6.2 mi South 11.5 mph - N/A   Unknown
1:00 AM 69.8 °F - 60.8 °F 73% 29.86 in 6.2 mi SSW 6.9 mph - N/A   Unknown
1:30 AM 69.8 °F - 60.8 °F 73% 29.86 in 6.2 mi SSW 8.1 mph - N/A   Unknown
2:00 AM 69.8 °F - 60.8 °F 73% 29.86 in 6.2 mi SW 6.9 mph - N/A   Unknown
2:30 AM 68.0 °F - 60.8 °F 78% 29.83 in 6.2 mi SSW 6.9 mph - N/A   Unknown
3:00 AM 68 °F - 61 °F 71% 29.86 in - SW 6.9 mph - -  
3:00 AM 68.0 °F - 60.8 °F 78% 29.86 in 6.2 mi SW 6.9 mph - N/A   Unknown
3:30 AM 68.0 °F - 60.8 °F 78% 29.86 in 6.2 mi SW 5.8 mph - N/A   Unknown
4:00 AM 68.0 °F - 60.8 °F 78% 29.86 in 6.2 mi WSW 4.6 mph - N/A   Unknown
4:30 AM 66.2 °F - 60.8 °F 83% 29.86 in 6.2 mi SW 4.6 mph - N/A   Unknown
5:00 AM 66.2 °F - 60.8 °F 83% 29.86 in 6.2 mi SW 5.8 mph - N/A   Scattered Clouds
5:30 AM 66.2 °F - 60.8 °F 83% 29.89 in 6.2 mi SSW 5.8 mph - N/A   Mostly Cloudy
6:00 AM 67 °F - 61 °F 76% 29.89 in - SSW 5.8 mph - -  
6:00 AM 68.0 °F - 60.8 °F 78% 29.89 in 6.2 mi SSW 5.8 mph - N/A   Unknown
6:30 AM 69.8 °F - 60.8 °F 73% 29.89 in 6.2 mi SW 9.2 mph - N/A   Unknown
7:00 AM 71.6 °F - 62.6 °F 73% 29.89 in 6.2 mi SSW 6.9 mph - N/A   Unknown
7:30 AM 73.4 °F - 62.6 °F 69% 29.92 in 6.2 mi SW 5.8 mph - N/A   Unknown
8:00 AM 75.2 °F - 62.6 °F 65% 29.92 in 6.2 mi SSW 8.1 mph - N/A   Unknown
8:30 AM 75.2 °F - 60.8 °F 61% 29.92 in 6.2 mi South 12.7 mph - N/A   Unknown
9:00 AM 77.0 °F - 62.6 °F 61% 29.95 in 6.2 mi SSW 9.2 mph - N/A   Unknown
9:30 AM 77.0 °F - 62.6 °F 61% 29.95 in 6.2 mi South 15.0 mph - N/A   Mostly Cloudy
10:00 AM 78.8 °F - 62.6 °F 57% 29.95 in 6.2 mi South 12.7 mph - N/A   Unknown
10:30 AM 80.6 °F 82.3 °F 64.4 °F 58% 29.95 in 6.2 mi South 12.7 mph - N/A   Scattered Clouds
11:00 AM 82.4 °F 83.4 °F 62.6 °F 51% 29.95 in 6.2 mi South 15.0 mph - N/A   Scattered Clouds
11:30 AM 82.4 °F 83.9 °F 64.4 °F 54% 29.92 in 6.2 mi South 15.0 mph - N/A   Scattered Clouds
12:00 PM 82 °F - 63 °F 43% 29.93 in - South 13.8 mph - -  
12:00 PM 82.4 °F 83.4 °F 62.6 °F 51% 29.92 in 6.2 mi South 13.8 mph - N/A   Mostly Cloudy
12:30 PM 82.4 °F 83.9 °F 64.4 °F 54% 29.92 in 6.2 mi SSE 13.8 mph - N/A   Mostly Cloudy
1:00 PM 80.6 °F 82.7 °F 66.2 °F 61% 29.92 in 6.2 mi SSE 15.0 mph - N/A   Overcast
1:30 PM 80.6 °F 82.3 °F 64.4 °F 58% 29.89 in 6.2 mi SSE 16.1 mph - N/A   Mostly Cloudy
2:00 PM 80.6 °F 82.7 °F 66.2 °F 61% 29.89 in 6.2 mi SSE 16.1 mph - N/A   Unknown
2:30 PM 80.6 °F 82.7 °F 66.2 °F 61% 29.89 in 6.2 mi SE 17.3 mph - N/A   Unknown
3:00 PM 80 °F - 66 °F 54% 29.89 in - SE 17.3 mph - -  
3:00 PM 80.6 °F 82.7 °F 66.2 °F 61% 29.89 in 6.2 mi SE 17.3 mph - N/A   Unknown
3:30 PM 80.6 °F 82.3 °F 64.4 °F 58% 29.89 in 6.2 mi SSE 16.1 mph - N/A   Unknown
4:00 PM 78.8 °F - 64.4 °F 61% 29.89 in 6.2 mi SSE 17.3 mph - N/A   Unknown
4:30 PM 78.8 °F - 66.2 °F 65% 29.89 in 6.2 mi SE 16.1 mph - N/A   Unknown
5:00 PM 78.8 °F - 64.4 °F 61% 29.89 in 6.2 mi SSE 13.8 mph - N/A   Unknown
5:30 PM 77.0 °F - 66.2 °F 69% 29.92 in 6.2 mi SSE 11.5 mph - N/A   Unknown
6:00 PM 75 °F - 67 °F 69% 29.93 in - SSE 10.4 mph - -  
6:00 PM 75.2 °F - 66.2 °F 73% 29.92 in 6.2 mi SSE 10.4 mph - N/A   Unknown
6:30 PM 75.2 °F - 66.2 °F 73% 29.92 in 6.2 mi South 11.5 mph - N/A   Unknown
7:00 PM 73.4 °F - 68.0 °F 83% 29.92 in 6.2 mi South 9.2 mph - N/A   Unknown
7:30 PM 73.4 °F - 66.2 °F 78% 29.95 in 6.2 mi South 5.8 mph - N/A   Unknown
8:00 PM 73.4 °F - 66.2 °F 78% 29.95 in 6.2 mi South 6.9 mph - N/A   Unknown
8:30 PM 73.4 °F - 64.4 °F 73% 29.98 in 6.2 mi SSW 6.9 mph - N/A   Unknown
9:00 PM 73 °F - 66 °F 72% 29.98 in - SW 6.9 mph - -  
9:00 PM 73.4 °F - 66.2 °F 78% 29.98 in 6.2 mi SW 6.9 mph - N/A   Unknown
9:30 PM 71.6 °F - 66.2 °F 83% 29.98 in 6.2 mi SW 5.8 mph - N/A   Unknown
10:00 PM 71.6 °F - 66.2 °F 83% 29.98 in 6.2 mi SW 4.6 mph - N/A   Unknown
10:30 PM 71.6 °F - 66.2 °F 83% 29.98 in 6.2 mi SW 5.8 mph - N/A   Unknown
11:00 PM 69.8 °F - 66.2 °F 88% 29.98 in 6.2 mi WSW 5.8 mph - N/A   Unknown
11:30 PM 69.8 °F - 66.2 °F 88% 29.98 in 6.2 mi WSW 4.6 mph - N/A   Mostly Cloudy